Date,TemperatureHighF,TemperatureAvgF,TemperatureLowF,DewpointHighF,DewpointAvgF,DewpointLowF,HumidityHigh,HumidityAvg,HumidityLow,PressureMaxIn,PressureMinIn,WindSpeedMaxMPH,WindSpeedAvgMPH,GustSpeedMaxMPH,PrecipitationSumIn
2014-1-1,14,9,3,9,4,-2,86,82,77,30.47,30.17,20,6,20,0.00
2014-1-2,9,4,-1,0,-3,-6,82,73,56,30.58,30.45,12,2,12,0.00
2014-1-3,36,19,-2,26,12,-7,84,75,67,30.51,29.68,28,11,28,0.00
2014-1-4,37,24,13,30,16,7,80,73,67,30.24,29.71,23,7,23,0.00
2014-1-5,13,4,-8,7,-6,-18,78,62,48,30.64,30.24,25,8,25,0.00
2014-1-6,4,-4,-11,-7,-13,-18,70,64,57,30.64,30.43,17,3,21,0.00
2014-1-7,27,13,-2,14,5,-8,78,70,58,30.43,30.14,12,2,13,0.00
2014-1-8,19,16,9,13,10,4,88,78,70,30.47,30.31,9,2,10,0.00
2014-1-9,24,16,8,22,12,3,93,85,80,30.44,30.02,16,4,16,0.00
2014-1-10,34,31,24,33,30,22,96,95,93,30.02,29.56,13,1,14,0.02
2014-1-11,45,35,26,33,28,24,96,77,56,29.86,29.64,18,3,19,0.01
2014-1-12,51,43,35,37,32,28,79,64,49,29.78,29.45,20,5,20,0.00
2014-1-13,47,39,34,35,29,24,83,66,49,29.87,29.66,16,4,16,0.01
2014-1-14,46,33,19,35,20,10,73,60,34,30.26,29.67,38,6,38,0.00
2014-1-15,20,15,12,11,8,6,79,73,63,30.28,30.23,10,2,10,0.00
2014-1-21,22,17,7,5,-1,-6,54,44,40,30.46,30.15,16,7,16,0.00
2014-1-22,28,19,0,19,9,-9,75,64,48,30.65,30.13,22,5,22,0.00
2014-1-23,0,-2,-4,-8,-10,-11,75,69,64,30.90,30.65,14,5,16,0.00
2014-1-26,26,14,8,13,-2,-9,64,49,42,30.31,30.00,27,10,27,0.00
2014-1-27,11,5,0,-8,-9,-11,62,51,40,30.59,30.31,21,4,21,0.00
2014-1-28,21,10,-2,-1,-6,-10,69,49,33,30.59,30.33,15,2,15,0.00
2014-1-29,44,26,6,17,8,-5,74,48,29,30.34,29.71,31,7,31,0.00
2014-1-30,42,32,19,25,15,9,65,50,31,30.11,29.50,25,9,26,0.00
2014-1-31,22,18,13,16,12,5,85,76,63,30.23,30.02,12,4,13,0.00
2014-2-1,27,20,12,22,15,6,90,80,67,30.36,29.97,20,4,20,0.00
2014-2-2,25,12,4,12,5,-1,82,74,50,30.48,30.34,16,3,16,0.00
2014-2-3,28,17,7,16,10,2,81,72,56,30.38,30.27,12,4,13,0.00
2014-2-4,24,18,5,20,14,1,90,87,73,30.41,30.22,28,7,28,0.00
2014-2-5,10,4,0,1,-2,-6,85,73,60,30.75,30.41,25,6,26,0.00
2014-2-6,7,1,-7,-2,-6,-12,78,71,61,30.74,30.53,11,3,11,0.00
2014-2-7,13,8,1,7,0,-6,80,70,54,30.53,30.27,16,5,16,0.00
2014-2-8,26,18,12,20,14,7,89,84,72,30.27,30.09,14,5,14,0.00
2014-2-9,20,12,6,18,6,-2,88,74,64,30.52,30.27,12,5,12,0.00
2014-2-10,11,5,0,1,-2,-6,78,71,61,30.62,30.52,9,1,9,0.00
2014-2-11,17,10,0,8,2,-5,83,71,63,30.58,30.22,19,6,20,0.00
2014-2-12,28,22,15,21,16,6,87,78,67,30.22,29.95,14,4,17,0.00
2014-2-13,52,36,23,33,27,20,87,70,46,29.96,29.71,23,5,23,0.00
2014-2-14,29,24,18,23,17,11,90,76,59,30.15,29.61,20,5,20,0.00
2014-2-15,48,30,17,34,22,12,84,74,52,30.12,29.85,20,7,20,0.00
2014-2-16,34,29,25,28,25,22,88,84,79,30.20,29.90,22,6,22,0.00
2014-2-17,53,40,27,36,27,22,93,65,32,29.97,29.80,29,5,29,0.09
2014-2-18,66,50,41,34,29,25,62,45,22,29.92,29.60,21,7,22,0.00
2014-2-19,47,40,29,35,30,24,84,69,52,29.95,29.60,24,5,24,0.00
2014-2-20,41,35,27,36,30,18,95,82,64,29.78,29.38,28,7,29,0.24
2014-2-21,49,35,24,31,24,16,76,64,41,29.91,29.77,21,4,21,0.01
2014-2-22,39,33,27,28,25,18,87,72,58,30.22,29.90,18,4,18,0.00
2014-2-23,29,25,21,19,14,8,75,62,48,30.42,30.22,15,4,17,0.00
2014-2-24,26,24,22,20,17,14,82,75,63,30.43,30.25,13,2,13,0.00
2014-2-26,32,26,12,18,14,4,72,59,49,30.36,29.99,24,7,25,0.00
2014-2-27,25,15,6,15,1,-9,75,55,31,30.27,29.97,17,5,18,0.00
2014-2-28,46,21,15,25,12,3,86,69,43,30.18,29.86,18,7,21,0.00
2014-3-1,21,9,0,16,3,-6,83,75,65,30.59,30.17,25,10,25,0.00
2014-3-2,4,0,-2,-5,-10,-13,76,63,52,30.70,30.56,22,7,22,0.00
2014-3-3,16,7,-4,5,-3,-12,76,63,55,30.70,30.28,20,6,21,0.00
2014-3-4,33,23,12,24,14,4,76,70,60,30.28,30.02,15,4,15,0.00
2014-3-5,32,26,22,23,20,17,86,80,69,30.36,30.11,15,4,16,0.00
2014-3-6,42,31,23,36,27,21,92,85,74,30.34,29.88,19,8,22,0.00
2014-3-7,47,36,26,38,31,21,90,81,70,30.17,29.82,23,8,25,0.00
2014-3-8,39,29,21,21,19,16,83,67,45,30.37,30.17,23,5,23,0.00
2014-3-9,67,47,26,36,29,19,77,53,29,30.33,29.83,33,8,37,0.00
2014-3-10,72,57,43,40,35,30,61,46,29,29.84,29.58,16,3,18,0.00
2014-3-11,53,45,35,39,35,30,87,68,55,30.03,29.45,36,8,43,0.00
2014-3-12,52,39,27,32,28,24,89,66,36,30.21,30.03,16,3,25,0.00
2014-3-13,66,51,34,32,27,23,66,43,23,30.08,29.70,23,6,23,0.00
2014-3-14,59,51,43,31,25,20,63,37,22,29.95,29.63,23,5,23,0.00
2014-3-15,71,45,32,33,27,21,85,53,20,30.17,29.77,29,6,31,0.00
2014-3-16,36,29,24,28,20,16,90,68,48,30.38,30.11,25,7,25,0.00
2014-3-17,55,38,23,31,23,16,78,58,35,30.12,29.50,30,10,31,0.00
2014-3-18,54,45,34,37,32,26,84,62,51,29.74,29.44,20,5,21,0.00
2014-3-19,51,40,32,30,28,26,89,65,40,30.11,29.74,17,4,18,0.00
2014-3-20,66,48,30,32,27,24,81,48,21,30.07,29.80,14,2,14,0.00
2014-3-21,58,45,34,36,31,26,84,59,32,30.22,29.74,24,5,26,0.00
2014-3-22,35,29,22,26,14,6,77,55,33,30.55,30.22,20,7,22,0.00
2014-3-23,37,25,17,14,10,9,74,56,34,30.59,30.35,10,2,11,0.00
2014-3-24,43,32,28,30,17,12,84,54,34,30.35,30.21,19,3,19,0.00
2014-3-25,38,30,23,22,10,2,84,48,24,30.44,30.22,21,4,21,0.00
2014-3-26,62,41,24,39,25,6,89,55,34,30.22,29.64,53,15,53,0.00
2014-3-27,62,43,34,55,40,30,96,90,74,29.83,29.24,26,8,27,0.01
2014-3-28,35,34,31,30,29,27,85,83,82,29.98,29.83,9,3,10,0.00
2014-4-1,46,40,25,24,22,18,72,49,40,30.13,30.05,18,4,18,0.00
2014-4-2,45,40,34,40,32,23,91,73,56,30.08,29.77,20,6,21,0.00
2014-4-3,42,40,33,41,39,32,97,95,89,29.77,29.63,17,6,17,0.12
2014-4-4,43,37,32,34,31,28,95,79,63,30.18,29.76,25,5,25,0.03
2014-4-5,59,43,27,36,29,24,90,62,32,30.20,29.99,25,6,25,0.00
2014-4-6,59,53,46,43,37,32,64,55,46,30.01,29.82,29,5,29,0.00
2014-4-7,65,54,44,46,38,30,78,58,28,29.89,29.73,21,3,21,0.00
2014-4-8,57,49,40,38,30,20,79,52,23,30.07,29.89,20,4,20,0.00
2014-4-9,79,60,39,41,29,20,50,33,20,30.06,29.60,29,7,30,0.00
2014-4-10,66,61,53,42,29,16,58,33,15,29.98,29.57,34,6,34,0.00
2014-4-11,76,63,47,36,28,17,40,27,19,30.03,29.80,19,5,19,0.00
2014-4-12,83,70,56,61,53,36,83,57,40,29.81,29.41,24,9,26,0.00
2014-4-13,71,47,31,55,43,29,95,88,48,29.87,29.47,35,10,35,0.63
2014-4-14,41,33,27,29,24,18,96,70,46,30.21,29.87,26,6,26,0.04
2014-4-15,52,40,28,33,26,18,77,58,37,30.24,29.90,22,5,24,0.00
2014-4-16,69,50,37,40,32,30,78,52,26,30.08,29.68,43,15,45,0.00
2014-4-17,54,42,32,32,29,26,80,61,35,30.35,30.08,14,3,14,0.00
2014-4-18,67,52,34,43,36,29,84,58,39,30.31,30.09,22,5,22,0.00
2014-4-19,78,64,49,49,45,41,75,52,34,30.11,29.94,32,10,32,0.00
2014-4-20,82,68,60,58,53,46,88,60,39,29.98,29.85,23,6,24,0.07
2014-4-21,73,64,56,60,47,23,90,61,16,30.07,29.87,25,4,28,0.00
2014-4-22,69,56,43,39,35,33,68,47,28,30.14,29.94,14,4,14,0.00
2014-4-23,62,55,49,48,43,37,82,63,52,29.96,29.57,30,9,30,0.07
2014-4-24,61,56,49,52,48,43,95,76,52,29.80,29.55,24,3,25,0.37
2014-4-25,80,63,46,47,42,38,76,50,23,29.85,29.71,23,5,23,0.00
2014-4-26,80,67,52,56,49,43,74,54,35,29.73,29.47,38,9,39,0.00
2014-4-27,68,63,57,60,56,52,95,80,63,29.48,29.19,28,6,29,0.67
2014-4-28,62,55,48,60,50,42,94,82,68,29.34,29.18,24,6,24,0.00
2014-4-29,49,45,39,47,42,35,94,89,78,29.86,29.34,24,4,24,0.06
2014-4-30,46,43,39,40,38,34,91,83,64,29.96,29.86,22,5,22,0.03
2014-5-1,49,45,42,40,39,38,92,80,70,30.00,29.89,17,3,17,0.00
2014-5-2,72,56,41,45,39,34,83,57,27,29.98,29.74,25,3,25,0.00
2014-5-3,74,63,49,45,41,38,68,47,30,29.91,29.80,10,2,10,0.00
2014-5-4,71,60,50,48,44,41,74,58,43,29.90,29.73,25,6,25,0.00
2014-5-5,70,56,48,45,43,41,78,64,39,29.79,29.71,15,5,15,0.00
2014-6-3,86,73,65,72,66,62,95,79,57,29.82,29.61,23,7,23,1.30
2014-6-4,79,70,62,68,63,61,96,82,63,29.83,29.55,24,2,24,0.44
2014-6-5,78,69,64,69,65,62,96,87,66,29.89,29.72,16,2,16,0.06
2014-6-6,84,74,64,69,65,62,96,77,48,29.91,29.78,14,2,14,0.01
2014-6-7,73,67,61,66,63,57,96,86,67,30.00,29.78,17,4,17,0.80
2014-6-8,68,62,56,62,58,53,92,87,78,30.04,29.90,11,2,12,0.00
2014-6-9,73,66,59,64,61,58,95,84,69,29.91,29.77,18,3,18,0.00
2014-6-10,77,69,60,62,58,54,82,69,51,29.83,29.77,13,3,13,0.00
2014-6-11,80,70,57,61,58,53,90,66,43,29.81,29.70,16,3,16,0.00
2014-6-12,75,68,62,63,53,45,80,59,40,30.01,29.74,17,3,18,0.01
2014-6-13,75,66,54,52,46,41,66,50,35,30.07,29.84,19,4,19,0.00
2014-6-14,82,72,58,70,62,51,81,73,64,29.88,29.52,36,12,38,0.00
2014-6-15,80,72,61,69,62,60,95,73,51,29.87,29.45,21,4,28,0.44
2014-6-16,87,76,64,76,70,63,97,81,66,29.88,29.57,37,9,37,0.00
2014-6-17,88,79,67,76,70,61,83,75,65,29.78,29.61,31,10,31,0.00
2014-6-18,89,82,74,78,74,70,89,77,63,29.74,29.66,26,10,26,0.00
2014-6-19,82,77,70,75,72,66,92,84,73,29.92,29.70,18,4,18,0.08
2014-6-20,89,78,67,73,68,60,96,73,40,29.95,29.80,26,4,26,0.29
2014-6-21,84,75,63,72,66,59,95,76,57,30.00,29.76,27,3,27,0.57
2014-6-22,78,75,69,71,68,66,92,81,75,29.83,29.72,11,2,11,0.12
2014-6-23,77,77,77,69,69,69,75,75,75,29.95,29.78,2,2,2,0.00
2014-6-24,77,77,77,69,69,69,75,75,75,30.00,29.94,2,2,2,0.00
2014-6-25,77,77,77,69,69,69,75,75,75,29.98,29.97,2,2,2,0.00
2014-7-13,75,73,71,55,54,51,55,50,44,30.05,29.99,7,2,7,0.00
2014-7-14,73,64,55,58,54,51,88,72,51,30.02,29.98,6,0,7,0.00
2014-7-15,74,65,60,61,59,57,90,80,58,30.03,29.99,8,2,9,0.00
2014-7-16,74,66,61,63,61,58,92,84,63,29.97,29.93,12,2,14,0.00
2014-7-17,78,69,63,67,64,60,91,82,68,29.90,29.87,11,5,12,0.00
2014-7-18,83,76,72,74,70,68,89,83,72,29.83,29.77,17,7,19,0.00
2014-7-19,90,84,80,82,76,73,81,76,73,29.85,29.76,14,5,17,0.00
2014-7-20,86,74,65,76,68,60,87,81,69,30.11,29.95,13,5,16,0.00
2014-7-21,82,71,63,65,63,59,87,76,53,30.10,30.05,6,1,8,0.00
2014-7-22,79,72,69,66,63,61,81,73,63,29.93,29.72,17,6,21,0.00
2014-7-23,96,80,71,81,74,69,95,85,52,29.72,29.62,7,2,8,0.00
2014-7-24,85,77,71,77,73,69,94,88,76,29.91,29.72,6,1,6,0.00
2014-7-25,79,67,60,60,58,56,87,74,50,30.14,30.01,12,2,15,0.00
2014-7-26,75,66,58,60,58,55,92,75,54,30.14,30.11,6,1,8,0.00
2014-7-27,75,66,60,60,57,55,85,75,56,30.08,30.04,5,1,7,0.00
2014-7-28,78,67,59,59,57,55,87,71,47,30.06,30.03,5,0,6,0.00
2014-7-29,80,69,63,63,62,60,94,78,51,30.02,29.94,7,1,9,0.28
2014-7-30,80,70,64,67,64,61,94,82,59,30.08,29.99,4,0,6,0.00
2014-7-31,82,74,62,69,66,59,92,78,60,30.07,29.99,11,2,15,1.29
2014-8-1,82,73,66,72,68,64,91,86,72,29.99,29.93,8,1,9,0.00
2014-8-2,81,74,70,72,70,68,93,87,74,29.98,29.92,7,1,9,0.00
2014-8-3,84,74,69,73,69,66,91,84,68,29.93,29.91,8,2,11,0.00
2014-8-4,77,71,68,72,69,67,97,94,86,29.86,29.79,9,1,13,0.09
2014-8-5,75,70,68,72,68,66,95,94,89,29.92,29.84,7,1,7,0.00
2014-8-6,77,70,67,70,67,65,96,91,76,29.97,29.91,9,1,9,0.01
2014-8-7,80,73,69,71,69,68,96,88,72,29.98,29.91,8,1,10,0.07
2014-8-8,78,71,67,70,68,66,96,91,76,30.00,29.94,5,0,12,0.00
2014-8-9,75,65,58,58,56,54,88,73,53,30.07,30.01,10,2,11,0.00
2014-8-10,74,65,60,58,56,55,85,74,51,30.09,30.02,6,0,7,0.00
2014-8-11,78,66,59,63,59,57,94,79,49,30.04,30.01,4,0,5,0.00
2014-8-12,79,70,68,66,63,62,84,80,61,29.94,29.88,7,1,10,0.00
2014-8-13,68,68,68,62,62,62,83,83,83,29.81,29.78,0,0,0,0.00